Weather observations for the past three days for
Block Island State Airport
| Date | Time (edt) | Wind (kph) | Vis. (km) | Weather | Sky Cond. | Temperature (ºC) | Relative Humidity | Wind Chill (°C) | Heat Index (°C) | Pressure | Precipitation (cm) | ||||||
|---|---|---|---|---|---|---|---|---|---|---|---|---|---|---|---|---|---|
| Air | Dwpt | 6 hour | altimeter (cm) | sea level (mb) | 1 hr | 3 hr | 6 hr | ||||||||||
| Max. | Min. | ||||||||||||||||
| 07 | 23:56 | N 17 | 16.09 | Fair | CLR | 10.6 | 0 | 48% | 75.67 | 1008.7 | |||||||
| 07 | 22:56 | NW 19 | 16.09 | Fair | CLR | 10.6 | -0.6 | 46% | 75.64 | 1008.5 | |||||||
| 07 | 21:56 | NW 13 | 16.09 | Fair | CLR | 11.1 | 0 | 47% | 75.67 | 1008.9 | |||||||
| 07 | 20:56 | NW 13 | 16.09 | Fair | CLR | 11.7 | -0.6 | 43% | 75.64 | 1008.5 | |||||||
| 07 | 19:56 | NW 9 | 16.09 | Fair | CLR | 12.2 | -0.6 | 16.1 | 12.2 | 42% | 75.59 | 1008.0 | |||||
| 07 | 18:56 | NW 15 | 16.09 | Fair | CLR | 12.8 | 2.2 | 49% | 75.54 | 1007.2 | |||||||
| 07 | 17:56 | W 20 | 16.09 | Fair | CLR | 13.3 | 3.3 | 51% | 75.51 | 1006.9 | |||||||
| 07 | 16:56 | W 17 G 35 | 16.09 | Fair | CLR | 14.4 | 2.2 | 44% | 75.51 | 1006.6 | |||||||
| 07 | 15:56 | W 24 | 16.09 | Fair | CLR | 15 | 2.8 | 44% | 75.49 | 1006.3 | |||||||
| 07 | 14:56 | W 26 | 16.09 | Fair | CLR | 15 | 1.1 | 39% | 75.54 | 1007.2 | |||||||
| 07 | 13:56 | W 28 | 16.09 | Fair | CLR | 14.4 | 2.2 | 15 | 8.9 | 44% | 75.59 | 1007.9 | |||||
| 07 | 12:56 | W 26 | 16.09 | Fair | CLR | 13.9 | 3.3 | 49% | 75.64 | 1008.4 | |||||||
| 07 | 11:56 | W 20 | 16.09 | A Few Clouds | FEW090 | 12.8 | 6.7 | 67% | 75.69 | 1009.0 | |||||||
| 07 | 10:56 | NW 15 | 16.09 | Mostly Cloudy | BKN090 | 12.2 | 7.2 | 72% | 75.72 | 1009.4 | |||||||
| 07 | 09:56 | NW 13 | 16.09 | Overcast | OVC090 | 10.6 | 8.3 | 86% | 75.72 | 1009.3 | |||||||
| 07 | 08:56 | W 7 | 16.09 | Light Rain | FEW007 BKN070 OVC085 | 9.4 | 8.3 | 93% | 9 | 75.74 | 1009.7 | ||||||
| 07 | 07:56 | NW 15 | 16.09 | Light Rain | OVC055 | 8.9 | 7.2 | 10.6 | 8.9 | 89% | 7 | 75.72 | 1009.5 | ||||
| 07 | 06:56 | NW 15 | 16.09 | Light Rain | OVC060 | 8.9 | 8.3 | 96% | 7 | 75.67 | 1009.0 | ||||||
| 07 | 05:56 | N 13 | 16.09 | Light Rain | FEW019 BKN060 OVC070 | 8.9 | 8.3 | 96% | 7 | 75.57 | 1007.7 | ||||||
| 07 | 04:56 | NW 13 | 16.09 | Light Rain | FEW032 SCT040 OVC055 | 10 | 10 | 100% | 8 | 75.54 | 1007.3 | ||||||
| 07 | 03:56 | NW 9 | 6.44 | Rain Fog/Mist | BKN003 BKN008 OVC023 | 10 | 10 | 100% | 9 | 75.54 | 1007.2 | ||||||
| 07 | 02:56 | SW 13 | 4.83 | Fog/Mist | OVC003 | 10 | 9.4 | 96% | 8 | 75.51 | 1006.7 | ||||||
| 07 | 01:56 | SW 17 | 6.44 | Fog/Mist | OVC005 | 10 | 9.4 | 11.1 | 10 | 96% | 8 | 75.51 | 1006.7 | ||||
| 07 | 00:56 | SW 22 | 6.44 | Fog/Mist | OVC003 | 10 | 9.4 | 96% | 7 | 75.59 | 1007.9 | ||||||
| 06 | 23:56 | SW 26 | 3.22 | Fog/Mist | OVC003 | 10 | 10 | 100% | 7 | 75.59 | 1007.8 | ||||||
| 06 | 22:56 | SW 31 | 1.61 | Fog/Mist | OVC003 | 10.6 | 10 | 96% | 75.62 | 1008.0 | |||||||
| 06 | 21:56 | SW 30 G 41 | 9.66 | Fog/Mist | BKN003 OVC036 | 10.6 | 10 | 96% | 75.64 | 1008.4 | |||||||
| 06 | 20:56 | SW 30 G 44 | 9.66 | Fog/Mist | OVC003 | 11.1 | 10.6 | 97% | 75.67 | 1008.9 | |||||||
| 06 | 19:56 | SW 30 G 39 | 6.44 | Fog/Mist | OVC005 | 11.1 | 10.6 | 13.3 | 11.1 | 97% | 75.64 | 1008.6 | |||||
| 06 | 18:56 | SW 24 G 37 | 9.66 | Fog/Mist | FEW004 OVC034 | 11.1 | 10.6 | 97% | 75.64 | 1008.5 | |||||||
| 06 | 17:56 | S 31 G 43 | 2.82 | Fog/Mist | SCT010 BKN022 OVC060 | 11.1 | 10.6 | 97% | 75.67 | 1008.7 | |||||||
| 06 | 16:56 | S 28 G 41 | 14.48 | Overcast | OVC070 | 11.7 | 10 | 89% | 75.67 | 1009.0 | |||||||
| 06 | 15:56 | S 26 G 37 | 11.27 | Overcast | OVC090 | 11.7 | 10 | 89% | 75.72 | 1009.5 | |||||||
| 06 | 14:56 | S 28 G 41 | 16.09 | Mostly Cloudy | BKN080 BKN110 | 12.2 | 9.4 | 83% | 75.77 | 1010.2 | |||||||
| 06 | 13:56 | S 31 G 50 | 16.09 | Fair | CLR | 12.8 | 10 | 14.4 | 12.8 | 83% | 75.82 | 1010.8 | |||||
| 06 | 12:56 | S 30 G 43 | 14.48 | Fair | CLR | 13.9 | 10 | 78% | 75.87 | 1011.6 | |||||||
| 06 | 11:56 | S 30 G 41 | 14.48 | Fair | CLR | 13.3 | 10 | 81% | 75.92 | 1012.1 | |||||||
| 06 | 10:56 | S 33 G 44 | 14.48 | Fair and Breezy | CLR | 14.4 | 10.6 | 78% | 75.95 | 1012.6 | |||||||
| 06 | 09:56 | S 28 G 44 | 14.48 | Fair | CLR | 13.3 | 10 | 81% | 75.92 | 1012.2 | |||||||
| 06 | 08:56 | SW 33 G 39 | 14.48 | Fair and Breezy | CLR | 13.3 | 10.6 | 84% | 75.95 | 1012.7 | |||||||
| 06 | 07:56 | SW 24 | 12.87 | Fair | CLR | 12.8 | 10 | 12.8 | 10.6 | 83% | 75.97 | 1012.9 | |||||
| 06 | 06:56 | S 31 G 44 | 12.87 | Fair | CLR | 11.1 | 9.4 | 89% | 75.95 | 1012.7 | |||||||
| 06 | 05:56 | S 30 | 12.87 | Fair | CLR | 11.1 | 10 | 93% | 75.95 | 1012.6 | |||||||
| 06 | 04:56 | S 31 G 43 | 14.48 | Fair | CLR | 11.1 | 10 | 93% | 75.97 | 1012.8 | |||||||
| 06 | 03:56 | S 28 G 39 | 12.87 | Fair | CLR | 11.1 | 10 | 93% | 76 | 1013.1 | |||||||
| 06 | 02:56 | S 30 G 43 | 14.48 | Fair | CLR | 11.1 | 10 | 93% | 75.97 | 1013.0 | |||||||
| 06 | 01:56 | SW 28 G 41 | 16.09 | Fair | CLR | 11.1 | 10 | 11.7 | 10.6 | 93% | 75.97 | 1012.9 | |||||
| 06 | 00:56 | SW 30 G 44 | 16.09 | Fair | CLR | 11.1 | 9.4 | 89% | 76 | 1013.2 | |||||||
| 05 | 23:56 | S 31 G 41 | 14.48 | Fair | CLR | 11.1 | 9.4 | 89% | 76.02 | 1013.4 | |||||||
| 05 | 22:56 | SW 31 G 44 | 16.09 | Fair | CLR | 11.7 | 9.4 | 86% | 76 | 1013.2 | |||||||
| 05 | 21:56 | SW 30 G 43 | 16.09 | Fair | CLR | 11.7 | 8.9 | 83% | 76 | 1013.3 | |||||||
| 05 | 20:56 | SW 35 G 48 | 16.09 | Fair and Breezy | CLR | 11.7 | 8.3 | 80% | 75.95 | 1012.7 | |||||||
| 05 | 19:56 | SW 30 G 48 | 14.48 | Fair | CLR | 11.7 | 7.8 | 13.3 | 11.7 | 77% | 75.9 | 1011.8 | |||||
| 05 | 18:56 | SW 35 G 50 | 16.09 | Fair and Breezy | CLR | 12.2 | 8.3 | 77% | 75.82 | 1011.0 | |||||||
| 05 | 17:56 | S 39 G 54 | 16.09 | Fair and Breezy | CLR | 12.8 | 8.9 | 77% | 75.82 | 1010.9 | |||||||
| 05 | 16:56 | SW 35 G 54 | 14.48 | Fair and Breezy | CLR | 12.8 | 8.9 | 77% | 75.82 | 1010.9 | |||||||
| 05 | 15:56 | S 33 G 44 | 14.48 | Fair and Breezy | CLR | 13.3 | 8.9 | 75% | 75.84 | 1011.2 | |||||||
| 05 | 14:56 | S 31 G 48 | 14.48 | Fair | CLR | 13.3 | 9.4 | 77% | 75.87 | 1011.5 | |||||||
| 05 | 13:56 | S 35 G 44 | 14.48 | Fair and Breezy | CLR | 13.3 | 8.9 | 13.9 | 11.1 | 75% | 75.9 | 1012.0 | |||||
| 05 | 12:56 | SW 37 G 48 | 14.48 | Fair and Breezy | CLR | 13.3 | 8.9 | 75% | 75.92 | 1012.3 | |||||||
| 05 | 11:56 | SW 30 G 44 | 14.48 | Fair | CLR | 13.3 | 8.9 | 75% | 76 | 1013.2 | |||||||
| 05 | 10:56 | S 30 G 41 | 14.48 | A Few Clouds | FEW110 | 12.2 | 8.9 | 80% | 75.97 | 1013.0 | |||||||
| 05 | 09:56 | SW 30 G 43 | 12.87 | Fair | CLR | 12.8 | 8.9 | 77% | 75.97 | 1012.7 | |||||||
| 05 | 08:56 | SW 30 | 14.48 | Partly Cloudy | SCT100 | 11.7 | 8.9 | 83% | 76 | 1013.1 | |||||||
| 05 | 07:56 | SW 24 | 14.48 | Fair | CLR | 11.1 | 8.9 | 11.1 | 8.9 | 86% | 75.95 | 1012.7 | |||||
| 05 | 06:56 | S 26 | 14.48 | Fair | CLR | 10 | 8.3 | 89% | 7 | 75.92 | 1012.3 | ||||||
| 05 | 05:56 | S 22 | 14.48 | Fair | CLR | 9.4 | 7.8 | 90% | 7 | 75.9 | 1012.0 | ||||||
| 05 | 04:56 | S 22 | 16.09 | Mostly Cloudy | BKN095 | 9.4 | 7.8 | 90% | 7 | 75.9 | 1011.8 | ||||||
| 05 | 03:56 | S 24 | 16.09 | A Few Clouds | FEW085 | 9.4 | 7.2 | 86% | 7 | 75.9 | 1012.0 | ||||||
| 05 | 02:56 | SW 28 G 37 | 16.09 | Fair | CLR | 10 | 7.8 | 86% | 7 | 75.92 | 1012.0 | ||||||
| 05 | 01:56 | SW 26 G 37 | 16.09 | Fair | CLR | 10 | 7.8 | 10 | 9.4 | 86% | 7 | 75.95 | 1012.4 | ||||
| 05 | 00:56 | SW 26 G 39 | 16.09 | Fair | CLR | 9.4 | 7.8 | 90% | 6 | 75.95 | 1012.7 | ||||||
| Date | Time (edt) | Wind (kph) | Vis. (km) | Weather | Sky Cond. | Air | Dwpt | Max. | Min. | Relative Humidity | Wind Chill (°C) | Heat Index (°C) | altimeter (cm) | sea level (mb) | 1 hr | 3 hr | 6 hr |
| 6 hour | |||||||||||||||||
| Temperature (ºC) | Pressure | Precipitation (cm) | |||||||||||||||